Regional Weather Roundup
Issued by NWS Newport/Morehead, NC

Current Version | Previous Version | Graphics & Text | Print | Product List | Glossary Off
Versions: 1 2 3 4 5 6 7 8 9 10 11 12 13 14 15 16 17 18 19 20 21 22 23 24 25 26 27 28 29 30 31 32 33 34 35 36 37 38 39 40 41 42 43 44 45 46 47 48 49 50

000
ASUS42 KMHX 311210
RWRMHX
WEATHER ROUNDUP FOR EASTERN NORTH CAROLINA
NATIONAL WEATHER SERVICE NEWPORT/MOREHEAD CITY NC
800 AM EDT FRI OCT 31 2014

NOTE: "FAIR" INDICATES FEW OR NO CLOUDS BELOW 12,000 FEET
WITH NO SIGNIFICANT WEATHER AND/OR OBSTRUCTIONS TO VISIBILITY

NCZ015>017-031-032-045>047-102-103-311300-
NORTH COAST

CITY           SKY/WX    TMP DP  RH WIND       PRES   REMARKS
EDENTON        CLOUDY    48  46  90 N3        29.94R
ELIZABETH CITY MOCLDY    55  46  71 N10       29.93S
KITTY HAWK     CLOUDY    59  44  56 N7G16     29.89S
MANTEO         CLOUDY    59  46  61 N15       29.90S

$$

NCZ045>047-081-094-103-104-311300-
CENTRAL COAST

CITY           SKY/WX    TMP DP  RH WIND       PRES   REMARKS
FRISCO         CLOUDY    60  50  69 NE9G23    29.85S
SWANQUARTER      N/A     55 N/A N/A N3G10     29.85S

$$

NCZ095-097-098-100-101-311300-
SOUTHERN COAST

CITY           SKY/WX    TMP DP  RH WIND       PRES   REMARKS
BEAUFORT       CLOUDY    58  48  69 N15G23    29.88S
CEDAR ISLAND     N/A     61 N/A N/A N23G29    29.91S
JACKSONVILLE   CLOUDY    50  46  86 N8        29.90R
PINEY ISLAND   CLOUDY    63  45  51 N18G28    29.87S
WILMINGTON     PTCLDY    50  47  89 N7        29.89F


$$

NCZ011>013-027>030-043-044-078>080-089-090>093-098-311300-
COASTAL PLAIN

CITY           SKY/WX    TMP DP  RH WIND       PRES   REMARKS
AHOSKIE        NOT AVBL
CLINTON        PTCLDY    47  46  96 NE3       29.93S
ELIZABETHTOWN  CLEAR     45  45  98 CALM      29.92S FOG
GOLDSBORO      CLOUDY    47  47  97 N6        29.92R
GREENVILLE     CLOUDY    46  45  93 N3        29.96R
HAVELOCK       CLOUDY    56  49  77 N9        29.90S
KENANSVILLE    CLOUDY    47  45  91 N6        29.93S
KINSTON        CLOUDY    48  45  87 N7        29.94R
NEW BERN       CLOUDY    53  47  79 N7        29.92R
RICHLANDS      CLOUDY    48  43  81 N3        29.91S
ROCKY MOUNT    CLOUDY    46  42  86 N5        29.95R
WASHINGTON     CLOUDY    47  44  90 N5        29.93R
WHITEVILLE     CLEAR     48  46  93 N3        29.91R

$$

AMZ130-135-150-152-154-156-158-170-250-252-270-ANZ085-086-088-633-658-670-311300-
MARINE OBSERVATIONS

STATION/POSITION TIME  TEMP    WIND        PRES    WAVE   SWELL
                       AIR SEA DIR/SP/G            HT/PER HT/PER
                 (UTC) (F)     (DEG/KT/KT) (MB)    (FT/S) (FT/S)
CHESAPEAKE LIGHT 1100   58      30/ 13/ 16 1014.3
64 E VA BEACH    1200   60 66   30/ 14/ 17 1012.3    3/ 4   2/ 7
DUCK             1200   60 65   20/ 17/ 20 1011.8
2 E DUCK         NOT AVBL
10 NE DUCK       1200      67                N/A     3/ 4
OREGON INLET     1200   60 66   10/ 14/ 19 1011.8
13E OREGON INLT  1200      69                N/A     5/ 5
HATTERAS CG      1200   62 66   20/ 19/ 25 1011.1
DIAMOND BUOY     1200   63      20/ 21/ 27 1009.9    6/ 6
17 S OCRACOKE    NOT AVBL
CAPE LOOKOUT     1100   60      10/ 18/ 24 1011.2
BEAUFORT LAB     1200   59 68   20/ 10/ 16 1011.0
30 SE NEW RIVER  1200   63 74   20/ 25/ 29 1009.6    6/ 6
5 SE WRIGHTSVLE  1100   56 71   40/ 17/ 19   N/A
225 S CAPE HAT   1150   72 77  250/  6/  8 1009.8    4/ 8   3/ 8
41 SE CHARLESTON 1200   68 77  360/ 19/ 23 1010.1    5/ 7   2/11

$$



USA.gov is the U.S. government's official web portal to all federal, state and local government web resources and services.